軌道要素
Epoch 2022 Aug. 9.0 TT = JDT 2459800.5
T 2023 Jan. 12.78611 TT Rudenko
q 1.1122561 (2000.0) P Q
z -0.0002543 Peri. 145.81440 -0.60062771 -0.07339891
+/-0.0000038 Node 302.55394 +0.33752590 +0.87941778
e 1.0002828 Incl. 109.16862 +0.72479144 -0.47035834
From 1491 observations 2021 Oct. 25-2022 July 18, mean residual 0".4.
|